Regional Weather Roundup
Issued by NWS

Home | Current Version | Previous Version | Text Only | Print | Product List | Glossary Off
Versions: 1 2 3 4 5 6 7 8 9 10 11 12 13 14 15 16 17 18 19 20 21 22 23 24 25 26 27 28 29 30 31 32 33 34 35 36 37 38 39 40 41 42 43 44 45 46 47 48 49 50

000
ASUS43 KMPX 070301
RWRMN
WEATHER ROUNDUP FOR MINNESOTA
NATIONAL WEATHER SERVICE TWIN CITIES/CHANHASSEN MN
1000 PM CDT MON JUL 06 2015


NOTE: "FAIR" INDICATES FEW OR NO CLOUDS BELOW 12,000 FEET WITH NO
SIGNIFICANT WEATHER AND/OR OBSTRUCTIONS TO VISIBILITY. N/A MEANS
CURRENT SKY AND/OR WEATHER CONDITIONS ARE NOT AVAILABLE.

MNZ060>063-068>070-070400-
   Twin Cities Metro

CITY           SKY/WX    TMP DP  RH WIND       PRES   REMARKS
TWIN CITIES    PTCLDY    63  49  60 N16G29    30.02R
ST PAUL        CLEAR     63  50  62 NW18      30.02R
CRYSTAL        CLEAR     63  48  58 NW13      30.02R
BLAINE         CLEAR     63  50  63 NW12      30.03R
LAKEVILLE      PTCLDY    63  52  67 N15G22    30.01R
EDEN PRAIRIE   CLEAR     63  50  62 N16G23    30.01R
SOUTH ST PAUL  CLEAR     64  49  59 N12       30.01R
LAKE ELMO      FAIR      63  52  67 NW9       30.02R
$$
MNZ001>005-007-008-013>017-022>024-027-028-070400-
   Northwest Minnesota

CITY           SKY/WX    TMP DP  RH WIND       PRES   REMARKS
BEMIDJI        CLOUDY    55  46  70 NW6       30.10R
HALLOCK        CLEAR     55  50  82 NW3       30.12R
ROSEAU         CLEAR     55  48  76 W5        30.11R
WARROAD        PTCLDY    54  50  87 W3        30.10R
THIEF RVR FALL CLEAR     54  46  76 NW3       30.13R
CROOKSTON      CLEAR     54  50  87 NW5       30.14R
FOSSTON        CLOUDY    54  46  76 CALM      30.12R
DETROIT LAKES  CLEAR     55  45  67 CALM      30.13R
MOORHEAD       CLEAR     55  46  71 N7        30.13R
PARK RAPIDS    MOCLDY    56  45  66 NW8       30.10R
MAHNOMEN       FAIR      53  45  75 N6        30.11R
$$
MNZ006-009>011-018-025>026-070400-
   North Central Minnesota

CITY           SKY/WX    TMP DP  RH WIND       PRES   REMARKS
BAUDETTE       CLOUDY    55  46  71 N3        30.08R
FLAG ISLAND    PTCLDY    61  45  55 CALM      30.07R
INTL FALLS     MOCLDY    53  44  71 NW5       30.07R
WASKISH        CLOUDY    55  46  71 N3        30.09R
BIG FORK       CLOUDY    55  45  67 CALM      30.08R
LONGVILLE      CLOUDY    57  46  67 N5        30.08R
GRAND RAPIDS   CLOUDY    57  41  54 N14       30.07R
CRANE LAKE     CLOUDY    54  43  66 N6        30.06R
COOK           CLOUDY    54  45  71 CALM      30.06R
WALKER         CLOUDY    55  46  70 NW3       30.08R
$$
MNZ012-019>021-037-070400-
   Northeast Minnesota

CITY           SKY/WX    TMP DP  RH WIND       PRES   REMARKS
DULUTH         MOCLDY    57  45  64 N8        30.03R
ELY            CLOUDY    54  43  66 N3        30.03R
HIBBING        CLOUDY    56  45  66 NW10      30.05R
DULUTH HARBOR    N/A     63  52  67 N15G21    30.03R
TWO HARBORS    CLEAR     57  46  67 CALM      30.01R
SILVER BAY     CLEAR     55  45  67 NW3       30.00R
GRAND MARAIS     N/A     54  45  71 CALM      29.98R
G MARAIS ARPRT PTCLDY    48  39  71 NW3       30.00R
$$
MNZ029>031-032-039>041-046>048-054>057-064-070400-
   West Central Minnesota

CITY           SKY/WX    TMP DP  RH WIND       PRES   REMARKS
FERGUS FALLS   CLEAR     57  46  67 N6        30.12R
WHEATON        CLEAR     55  48  76 N3        30.14R
MORRIS         CLEAR     57  50  77 N5        30.11R
ALEXANDRIA     CLEAR     58  46  64 N8        30.12R
ELBOW LAKE     FAIR      58  47  68 N8        30.11R
WADENA         CLEAR     52  45  76 N5        30.10R
GLENWOOD       CLEAR     55  46  71 N6        30.12R
APPLETON       CLEAR     57  50  77 N6        30.11R
BENSON         CLEAR     57  46  67 N5        30.11R
ORTONVILLE     CLEAR     59  50  72 NE7       30.12R
MADISON        CLEAR     57  50  77 N6        30.12R
WILLMAR        FAIR      57  48  72 N6        30.12R
$$
MNZ033>034-036-042>043-049>051-058-059-070400-
   Central Minnesota

CITY           SKY/WX    TMP DP  RH WIND       PRES   REMARKS
ST CLOUD       CLOUDY    57  49  74 NW8       30.07R
SAUK CENTRE    FAIR      56  46  70 N3        30.11R
PAYNESVILLE    CLEAR     52  46  79 W3        30.10R
AITKIN         PTCLDY    54  46  76 CALM      30.06R
PINE RIVER     CLOUDY    57  46  67 NW5       30.11R
BRAINERD       CLOUDY    58  46  64 N7        30.08R
STAPLES        CLEAR     52  45  76 N5        30.10R
LONG PRAIRIE   FAIR      54  45  71 CALM      30.11R
LITTLE FALLS   MOCLDY    55  43  62 NW3       30.09R
LITCHFIELD     CLEAR     57  46  67 N6        30.10R
BUFFALO        CLEAR     59  47  65 NW9       30.06S
MAPLE LAKE     CLEAR     59  49  70 NW8       30.08R
$$
MNZ037-044-045-052-053-070400-
   East Central Minnesota

CITY           SKY/WX    TMP DP  RH WIND       PRES   REMARKS
PRINCETON      CLOUDY    61  50  67 NW5       30.07R
MORA           CLEAR     55  45  67 CALM      30.07R
CAMBRIDGE      MOCLDY    61  46  59 NW6       30.04R
MOOSE LAKE     CLOUDY    57  46  67 CALM      30.03R
HINCKLEY       FAIR      55  48  76 NW3       30.05R
CLOQUET        MOCLDY    55  45  67 NW7       30.04R
MCGREGOR       CLOUDY    57  46  67 NW5       30.06R
$$
MNZ071>073-080-081-089-090-097-098-070400-
   Southwest Minnesota

CITY           SKY/WX    TMP DP  RH WIND       PRES   REMARKS
GRANITE FALLS  CLEAR     58  49  72 NW5       30.13R
CANBY          MOCLDY    59  51  74 N5        30.13R
MARSHALL       CLEAR     57  48  72 N7          N/A
REDWOOD FALLS  CLEAR     60  49  66 N7        30.07S
OLIVIA         CLEAR     55  45  67 N6        30.09R
PIPESTONE      CLEAR     61  52  72 N6        30.11R
WINDOM         CLEAR     59  48  67 N10       30.07S
WORTHINGTON    CLEAR     57  48  72 N9        30.09R
JACKSON        PTCLDY    61  50  67 N9        30.07R
TRACY          CLEAR     60  51  74 N12       30.10S
SLAYTON        CLEAR     59  53  80 N14       30.10S
$$
MNZ065>067-074>077-082>085-091>093-070400-
   South Central Minnesota

CITY           SKY/WX    TMP DP  RH WIND       PRES   REMARKS
MANKATO        CLEAR     63  50  63 N16       30.03R
NEW ULM        CLEAR     61  48  63 N10G17    30.05R
ST JAMES       CLEAR     61  54  77 NW10      30.06R
FAIRMONT       PTCLDY    63  48  59 NW8       30.04R
GLENCOE        CLEAR     61  50  66 NW13G24   30.05R
FARIBAULT      PTCLDY    64  52  63 NW9       30.01R
OWATONNA       PTCLDY    64  54  68 N13       30.01R
WASECA         PTCLDY    63  54  72 NW10      30.03R
ALBERT LEA     MOCLDY    64  57  77 NW7       30.01R HAZE
$$
MNZ078>079-086>088-094>096-070400-
   Southeast Minnesota

CITY           SKY/WX    TMP DP  RH WIND       PRES   REMARKS
ROCHESTER      PTCLDY    60  57  89 NW3       30.00R SMOKE
RED WING       CLEAR     63  59  88 N6        29.98R FOG
DODGE CENTER   MOCLDY    63  59  88 CALM      30.00R FOG
WINONA           N/A     61  59  94 CALM      29.97R FOG
AUSTIN         MOCLDY    63  59  88 CALM      30.00R FOG
PRESTON        PTCLDY    59  56  88 N3        30.00R FOG
$$
ABBREVIATIONS USED IN REMARKS
   TC - TEMPERATURES IN CELSIUS
  WCI - WIND CHILL INDEX
   HX - HEAT INDEX
  VSB - VISIBILITY
$$


USA.gov is the U.S. government's official web portal to all federal, state and local government web resources and services.